Date_Time,Julian_Date,Latitude,Longitude,Instrument_Depth,U,V,Speed,Direction
(yyyy-mm-dd hh:mn:ss UTC),(JD),(+ deg. North),(+ deg. East),(m),(cm/s),(cm/s),(cm/s),(deg True)
1981-09-29 23:30:00 UTC,2444877.479167,29.6650,-93.4789,0037,-8.43,-7.07,11.0000,230.0000
1981-09-30 00:00:00 UTC,2444877.500000,29.6650,-93.4789,0037,-7.88,-6.16,10.0000,232.0000
1981-09-30 00:30:00 UTC,2444877.520833,29.6650,-93.4789,0037,-7.79,-4.50,9.0000,240.0000
1981-09-30 01:00:00 UTC,2444877.541667,29.6650,-93.4789,0037,-6.76,-1.81,7.0000,255.0000
1981-09-30 01:30:00 UTC,2444877.562500,29.6650,-93.4789,0037,-5.91,1.04,6.0000,280.0000
1981-09-30 02:00:00 UTC,2444877.583333,29.6650,-93.4789,0037,-4.91,3.44,6.0000,305.0000
1981-09-30 02:30:00 UTC,2444877.604167,29.6650,-93.4789,0037,-3.27,5.03,6.0000,327.0000
1981-09-30 03:00:00 UTC,2444877.625000,29.6650,-93.4789,0037,-2.07,7.73,8.0000,345.0000
1981-09-30 03:30:00 UTC,2444877.645833,29.6650,-93.4789,0037,-1.91,10.83,11.0000,350.0000
1981-09-30 04:00:00 UTC,2444877.666667,29.6650,-93.4789,0037,-1.13,12.95,13.0000,355.0000
1981-09-30 04:30:00 UTC,2444877.687500,29.6650,-93.4789,0037,-0.26,15.00,15.0000,359.0000
1981-09-30 05:00:00 UTC,2444877.708333,29.6650,-93.4789,0037,1.05,14.96,15.0000,4.0000
1981-09-30 05:30:00 UTC,2444877.729167,29.6650,-93.4789,0037,2.35,14.82,15.0000,9.0000
1981-09-30 06:00:00 UTC,2444877.750000,29.6650,-93.4789,0037,3.86,13.46,14.0000,16.0000
1981-09-30 06:30:00 UTC,2444877.770833,29.6650,-93.4789,0037,6.14,12.58,14.0000,26.0000
1981-09-30 07:00:00 UTC,2444877.791667,29.6650,-93.4789,0037,7.82,10.38,13.0000,37.0000
1981-09-30 07:30:00 UTC,2444877.812500,29.6650,-93.4789,0037,10.40,9.37,14.0000,48.0000
1981-09-30 08:00:00 UTC,2444877.833333,29.6650,-93.4789,0037,10.88,8.81,14.0000,51.0000
1981-09-30 08:30:00 UTC,2444877.854167,29.6650,-93.4789,0037,10.90,7.08,13.0000,57.0000
1981-09-30 09:00:00 UTC,2444877.875000,29.6650,-93.4789,0037,11.41,3.71,12.0000,72.0000
1981-09-30 09:30:00 UTC,2444877.895833,29.6650,-93.4789,0037,11.93,1.25,12.0000,84.0000
1981-09-30 10:00:00 UTC,2444877.916667,29.6650,-93.4789,0037,12.00,0.00,12.0000,90.0000
1981-09-30 10:30:00 UTC,2444877.937500,29.6650,-93.4789,0037,12.90,-1.58,13.0000,97.0000
1981-09-30 11:00:00 UTC,2444877.958333,29.6650,-93.4789,0037,13.69,-2.91,14.0000,102.0000
1981-09-30 11:30:00 UTC,2444877.979167,29.6650,-93.4789,0037,13.46,-3.86,14.0000,106.0000
1981-09-30 12:00:00 UTC,2444878.000000,29.6650,-93.4789,0037,12.36,-4.02,13.0000,108.0000
1981-09-30 12:30:00 UTC,2444878.020833,29.6650,-93.4789,0037,12.22,-4.45,13.0000,110.0000
1981-09-30 13:00:00 UTC,2444878.041667,29.6650,-93.4789,0037,11.97,-5.08,13.0000,113.0000
1981-09-30 13:30:00 UTC,2444878.062500,29.6650,-93.4789,0037,11.88,-5.29,13.0000,114.0000
1981-09-30 14:00:00 UTC,2444878.083333,29.6650,-93.4789,0037,12.14,-4.66,13.0000,111.0000
1981-09-30 14:30:00 UTC,2444878.104167,29.6650,-93.4789,0037,12.36,-4.02,13.0000,108.0000
1981-09-30 15:00:00 UTC,2444878.125000,29.6650,-93.4789,0037,11.59,-3.11,12.0000,105.0000
1981-09-30 15:30:00 UTC,2444878.145833,29.6650,-93.4789,0037,11.74,-2.49,12.0000,102.0000
1981-09-30 16:00:00 UTC,2444878.166667,29.6650,-93.4789,0037,11.85,-1.88,12.0000,99.0000
1981-09-30 16:30:00 UTC,2444878.187500,29.6650,-93.4789,0037,11.82,-2.08,12.0000,100.0000
1981-09-30 17:00:00 UTC,2444878.208333,29.6650,-93.4789,0037,11.74,-2.49,12.0000,102.0000
1981-09-30 17:30:00 UTC,2444878.229167,29.6650,-93.4789,0037,10.86,-1.72,11.0000,99.0000
1981-09-30 18:00:00 UTC,2444878.250000,29.6650,-93.4789,0037,10.97,-0.77,11.0000,94.0000
1981-09-30 18:30:00 UTC,2444878.270833,29.6650,-93.4789,0037,10.96,-0.96,11.0000,95.0000
1981-09-30 19:00:00 UTC,2444878.291667,29.6650,-93.4789,0037,11.74,-2.49,12.0000,102.0000
1981-09-30 19:30:00 UTC,2444878.312500,29.6650,-93.4789,0037,10.13,-4.30,11.0000,113.0000
1981-09-30 20:00:00 UTC,2444878.333333,29.6650,-93.4789,0037,8.90,-6.47,11.0000,126.0000
1981-09-30 20:30:00 UTC,2444878.354167,29.6650,-93.4789,0037,6.69,-7.43,10.0000,138.0000
1981-09-30 21:00:00 UTC,2444878.375000,29.6650,-93.4789,0037,6.31,-9.01,11.0000,145.0000
1981-09-30 21:30:00 UTC,2444878.395833,29.6650,-93.4789,0037,6.36,-10.18,12.0000,148.0000
1981-09-30 22:00:00 UTC,2444878.416667,29.6650,-93.4789,0037,5.83,-9.33,11.0000,148.0000
1981-09-30 22:30:00 UTC,2444878.437500,29.6650,-93.4789,0037,4.36,-7.87,9.0000,151.0000
1981-09-30 23:00:00 UTC,2444878.458333,29.6650,-93.4789,0037,4.54,-8.91,10.0000,153.0000
1981-09-30 23:30:00 UTC,2444878.479167,29.6650,-93.4789,0037,5.33,-9.62,11.0000,151.0000
1981-10-01 00:00:00 UTC,2444878.500000,29.6650,-93.4789,0037,6.47,-8.90,11.0000,144.0000
1981-10-01 00:30:00 UTC,2444878.520833,29.6650,-93.4789,0037,7.22,-9.58,12.0000,143.0000
1981-10-01 01:00:00 UTC,2444878.541667,29.6650,-93.4789,0037,4.69,-8.83,10.0000,152.0000
1981-10-01 01:30:00 UTC,2444878.562500,29.6650,-93.4789,0037,2.78,-8.56,9.0000,162.0000
1981-10-01 02:00:00 UTC,2444878.583333,29.6650,-93.4789,0037,2.18,-8.73,9.0000,166.0000
1981-10-01 02:30:00 UTC,2444878.604167,29.6650,-93.4789,0037,-0.35,-9.99,10.0000,182.0000
1981-10-01 03:00:00 UTC,2444878.625000,29.6650,-93.4789,0037,-5.42,-7.19,9.0000,217.0000
1981-10-01 03:30:00 UTC,2444878.645833,29.6650,-93.4789,0037,-11.59,-3.11,12.0000,255.0000
1981-10-01 04:00:00 UTC,2444878.666667,29.6650,-93.4789,0037,-15.98,0.84,16.0000,273.0000
1981-10-01 04:30:00 UTC,2444878.687500,29.6650,-93.4789,0037,-19.63,3.82,20.0000,281.0000
1981-10-01 05:00:00 UTC,2444878.708333,29.6650,-93.4789,0037,-22.41,5.17,23.0000,283.0000
1981-10-01 05:30:00 UTC,2444878.729167,29.6650,-93.4789,0037,-25.33,5.85,26.0000,283.0000
1981-10-01 06:00:00 UTC,2444878.750000,29.6650,-93.4789,0037,-30.08,7.50,31.0000,284.0000
1981-10-01 06:30:00 UTC,2444878.770833,29.6650,-93.4789,0037,-34.77,9.32,36.0000,285.0000
1981-10-01 07:00:00 UTC,2444878.791667,29.6650,-93.4789,0037,-33.96,8.47,35.0000,284.0000
1981-10-01 07:30:00 UTC,2444878.812500,29.6650,-93.4789,0037,-33.81,3.55,34.0000,276.0000
1981-10-01 08:00:00 UTC,2444878.833333,29.6650,-93.4789,0037,-32.99,-0.58,33.0000,269.0000
1981-10-01 08:30:00 UTC,2444878.854167,29.6650,-93.4789,0037,-32.00,0.56,32.0000,271.0000
1981-10-01 09:00:00 UTC,2444878.875000,29.6650,-93.4789,0037,-30.70,4.31,31.0000,278.0000
1981-10-01 09:30:00 UTC,2444878.895833,29.6650,-93.4789,0037,-30.70,4.31,31.0000,278.0000
1981-10-01 10:00:00 UTC,2444878.916667,29.6650,-93.4789,0037,-27.89,2.44,28.0000,275.0000
1981-10-01 10:30:00 UTC,2444878.937500,29.6650,-93.4789,0037,-24.94,1.74,25.0000,274.0000
1981-10-01 11:00:00 UTC,2444878.958333,29.6650,-93.4789,0037,-22.87,2.40,23.0000,276.0000
1981-10-01 11:30:00 UTC,2444878.979167,29.6650,-93.4789,0037,-22.72,3.60,23.0000,279.0000
1981-10-01 12:00:00 UTC,2444879.000000,29.6650,-93.4789,0037,-21.73,3.44,22.0000,279.0000
1981-10-01 12:30:00 UTC,2444879.020833,29.6650,-93.4789,0037,-20.84,2.56,21.0000,277.0000
1981-10-01 13:00:00 UTC,2444879.041667,29.6650,-93.4789,0037,-18.95,1.33,19.0000,274.0000
1981-10-01 13:30:00 UTC,2444879.062500,29.6650,-93.4789,0037,-17.98,-0.94,18.0000,267.0000
1981-10-01 14:00:00 UTC,2444879.083333,29.6650,-93.4789,0037,-17.67,-3.43,18.0000,259.0000
1981-10-01 14:30:00 UTC,2444879.104167,29.6650,-93.4789,0037,-16.50,-4.11,17.0000,256.0000
1981-10-01 15:00:00 UTC,2444879.125000,29.6650,-93.4789,0037,-17.02,-5.86,18.0000,251.0000
1981-10-01 15:30:00 UTC,2444879.145833,29.6650,-93.4789,0037,-19.33,-8.21,21.0000,247.0000
1981-10-01 16:00:00 UTC,2444879.166667,29.6650,-93.4789,0037,-20.67,-7.52,22.0000,250.0000
1981-10-01 16:30:00 UTC,2444879.187500,29.6650,-93.4789,0037,-19.56,-4.16,20.0000,258.0000
1981-10-01 17:00:00 UTC,2444879.208333,29.6650,-93.4789,0037,-18.93,-1.66,19.0000,265.0000
1981-10-01 17:30:00 UTC,2444879.229167,29.6650,-93.4789,0037,-19.97,-1.05,20.0000,267.0000
1981-10-01 18:00:00 UTC,2444879.250000,29.6650,-93.4789,0037,-20.99,-0.73,21.0000,268.0000
1981-10-01 18:30:00 UTC,2444879.270833,29.6650,-93.4789,0037,-20.92,-1.83,21.0000,265.0000
1981-10-01 19:00:00 UTC,2444879.291667,29.6650,-93.4789,0037,-18.90,-1.99,19.0000,264.0000
1981-10-01 19:30:00 UTC,2444879.312500,29.6650,-93.4789,0037,-15.96,-1.12,16.0000,266.0000
1981-10-01 20:00:00 UTC,2444879.333333,29.6650,-93.4789,0037,-13.98,-0.73,14.0000,267.0000
1981-10-01 20:30:00 UTC,2444879.354167,29.6650,-93.4789,0037,-12.99,-0.45,13.0000,268.0000
1981-10-01 21:00:00 UTC,2444879.375000,29.6650,-93.4789,0037,-9.99,0.52,10.0000,273.0000
1981-10-01 21:30:00 UTC,2444879.395833,29.6650,-93.4789,0037,-7.94,0.97,8.0000,277.0000
1981-10-01 22:00:00 UTC,2444879.416667,29.6650,-93.4789,0037,-6.99,0.37,7.0000,273.0000
1981-10-01 22:30:00 UTC,2444879.437500,29.6650,-93.4789,0037,-5.96,-0.73,6.0000,263.0000
1981-10-01 23:00:00 UTC,2444879.458333,29.6650,-93.4789,0037,-5.77,-1.65,6.0000,254.0000
1981-10-01 23:30:00 UTC,2444879.479167,29.6650,-93.4789,0037,-5.48,-2.44,6.0000,246.0000
1981-10-02 00:00:00 UTC,2444879.500000,29.6650,-93.4789,0037,-5.44,-4.41,7.0000,231.0000
1981-10-02 00:30:00 UTC,2444879.520833,29.6650,-93.4789,0037,-4.47,-6.63,8.0000,214.0000
1981-10-02 01:00:00 UTC,2444879.541667,29.6650,-93.4789,0037,-3.95,-8.09,9.0000,206.0000
1981-10-02 01:30:00 UTC,2444879.562500,29.6650,-93.4789,0037,-4.23,-7.95,9.0000,208.0000
1981-10-02 02:00:00 UTC,2444879.583333,29.6650,-93.4789,0037,-4.70,-6.47,8.0000,216.0000
1981-10-02 02:30:00 UTC,2444879.604167,29.6650,-93.4789,0037,-5.35,-5.95,8.0000,222.0000
1981-10-02 03:00:00 UTC,2444879.625000,29.6650,-93.4789,0037,-3.94,-4.53,6.0000,221.0000
1981-10-02 03:30:00 UTC,2444879.645833,29.6650,-93.4789,0037,-3.08,-3.94,5.0000,218.0000
1981-10-02 04:00:00 UTC,2444879.666667,29.6650,-93.4789,0037,-2.12,-2.12,3.0000,225.0000
1981-10-02 04:30:00 UTC,2444879.687500,29.6650,-93.4789,0037,-2.49,-1.68,3.0000,236.0000
1981-10-02 05:00:00 UTC,2444879.708333,29.6650,-93.4789,0037,-1.64,-1.15,2.0000,235.0000
1981-10-02 05:30:00 UTC,2444879.729167,29.6650,-93.4789,0037,-0.00,-0.00,0.0000,226.0000
1981-10-02 06:00:00 UTC,2444879.750000,29.6650,-93.4789,0037,0.16,0.99,1.0000,9.0000
1981-10-02 06:30:00 UTC,2444879.770833,29.6650,-93.4789,0037,0.21,1.99,2.0000,6.0000
1981-10-02 07:00:00 UTC,2444879.791667,29.6650,-93.4789,0037,-0.17,1.99,2.0000,355.0000
1981-10-02 07:30:00 UTC,2444879.812500,29.6650,-93.4789,0037,-1.12,2.78,3.0000,338.0000
1981-10-02 08:00:00 UTC,2444879.833333,29.6650,-93.4789,0037,-2.24,3.32,4.0000,326.0000
1981-10-02 08:30:00 UTC,2444879.854167,29.6650,-93.4789,0037,-4.46,4.01,6.0000,312.0000
1981-10-02 09:00:00 UTC,2444879.875000,29.6650,-93.4789,0037,-6.29,3.07,7.0000,296.0000
1981-10-02 09:30:00 UTC,2444879.895833,29.6650,-93.4789,0037,-7.47,2.87,8.0000,291.0000
1981-10-02 10:00:00 UTC,2444879.916667,29.6650,-93.4789,0037,-8.28,3.52,9.0000,293.0000
1981-10-02 10:30:00 UTC,2444879.937500,29.6650,-93.4789,0037,-7.31,3.25,8.0000,294.0000
1981-10-02 11:00:00 UTC,2444879.958333,29.6650,-93.4789,0037,-6.39,2.85,7.0000,294.0000
1981-10-02 11:30:00 UTC,2444879.979167,29.6650,-93.4789,0037,-6.73,1.93,7.0000,286.0000
1981-10-02 12:00:00 UTC,2444880.000000,29.6650,-93.4789,0037,-8.93,1.10,9.0000,277.0000
1981-10-02 12:30:00 UTC,2444880.020833,29.6650,-93.4789,0037,-7.94,0.97,8.0000,277.0000
1981-10-02 13:00:00 UTC,2444880.041667,29.6650,-93.4789,0037,-4.96,0.61,5.0000,277.0000
1981-10-02 13:30:00 UTC,2444880.062500,29.6650,-93.4789,0037,-5.00,-0.09,5.0000,269.0000
1981-10-02 14:00:00 UTC,2444880.083333,29.6650,-93.4789,0037,-6.00,-0.21,6.0000,268.0000
1981-10-02 14:30:00 UTC,2444880.104167,29.6650,-93.4789,0037,-6.96,0.73,7.0000,276.0000
1981-10-02 15:00:00 UTC,2444880.125000,29.6650,-93.4789,0037,-5.52,2.34,6.0000,293.0000
1981-10-02 15:30:00 UTC,2444880.145833,29.6650,-93.4789,0037,-3.61,4.79,6.0000,323.0000
1981-10-02 16:00:00 UTC,2444880.166667,29.6650,-93.4789,0037,-1.65,5.77,6.0000,344.0000
1981-10-02 16:30:00 UTC,2444880.187500,29.6650,-93.4789,0037,-0.44,4.98,5.0000,355.0000
1981-10-02 17:00:00 UTC,2444880.208333,29.6650,-93.4789,0037,0.42,2.97,3.0000,8.0000
1981-10-02 17:30:00 UTC,2444880.229167,29.6650,-93.4789,0037,1.18,1.62,2.0000,36.0000
1981-10-02 18:00:00 UTC,2444880.250000,29.6650,-93.4789,0037,2.82,1.03,3.0000,70.0000
1981-10-02 18:30:00 UTC,2444880.270833,29.6650,-93.4789,0037,3.78,1.30,4.0000,71.0000
1981-10-02 19:00:00 UTC,2444880.291667,29.6650,-93.4789,0037,5.25,2.91,6.0000,61.0000
1981-10-02 19:30:00 UTC,2444880.312500,29.6650,-93.4789,0037,5.39,2.63,6.0000,64.0000
1981-10-02 20:00:00 UTC,2444880.333333,29.6650,-93.4789,0037,3.86,1.04,4.0000,75.0000
1981-10-02 20:30:00 UTC,2444880.354167,29.6650,-93.4789,0037,2.00,0.14,2.0000,86.0000
1981-10-02 21:00:00 UTC,2444880.375000,29.6650,-93.4789,0037,0.98,0.21,1.0000,78.0000
1981-10-02 21:30:00 UTC,2444880.395833,29.6650,-93.4789,0037,0.99,0.10,1.0000,84.0000
1981-10-02 22:00:00 UTC,2444880.416667,29.6650,-93.4789,0037,0.48,-0.87,1.0000,151.0000
1981-10-02 22:30:00 UTC,2444880.437500,29.6650,-93.4789,0037,0.21,-1.99,2.0000,174.0000
1981-10-02 23:00:00 UTC,2444880.458333,29.6650,-93.4789,0037,-0.57,-2.94,3.0000,191.0000
1981-10-02 23:30:00 UTC,2444880.479167,29.6650,-93.4789,0037,-1.79,-4.67,5.0000,201.0000
1981-10-03 00:00:00 UTC,2444880.500000,29.6650,-93.4789,0037,-3.76,-7.06,8.0000,208.0000
1981-10-03 00:30:00 UTC,2444880.520833,29.6650,-93.4789,0037,-5.16,-9.71,11.0000,208.0000
1981-10-03 01:00:00 UTC,2444880.541667,29.6650,-93.4789,0037,-6.58,-13.48,15.0000,206.0000
1981-10-03 01:30:00 UTC,2444880.562500,29.6650,-93.4789,0037,-7.61,-16.31,18.0000,205.0000
1981-10-03 02:00:00 UTC,2444880.583333,29.6650,-93.4789,0037,-8.92,-16.78,19.0000,208.0000
1981-10-03 02:30:00 UTC,2444880.604167,29.6650,-93.4789,0037,-9.80,-15.10,18.0000,213.0000
1981-10-03 03:00:00 UTC,2444880.625000,29.6650,-93.4789,0037,-10.23,-13.58,17.0000,217.0000
1981-10-03 03:30:00 UTC,2444880.645833,29.6650,-93.4789,0037,-8.95,-13.26,16.0000,214.0000
1981-10-03 04:00:00 UTC,2444880.666667,29.6650,-93.4789,0037,-8.24,-13.71,16.0000,211.0000
1981-10-03 04:30:00 UTC,2444880.687500,29.6650,-93.4789,0037,-8.00,-13.86,16.0000,210.0000
1981-10-03 05:00:00 UTC,2444880.708333,29.6650,-93.4789,0037,-7.51,-14.13,16.0000,208.0000
1981-10-03 05:30:00 UTC,2444880.729167,29.6650,-93.4789,0037,-7.51,-14.13,16.0000,208.0000
1981-10-03 06:00:00 UTC,2444880.750000,29.6650,-93.4789,0037,-7.73,-12.86,15.0000,211.0000
1981-10-03 06:30:00 UTC,2444880.770833,29.6650,-93.4789,0037,-7.83,-11.61,14.0000,214.0000
1981-10-03 07:00:00 UTC,2444880.791667,29.6650,-93.4789,0037,-7.83,-11.61,14.0000,214.0000
1981-10-03 07:30:00 UTC,2444880.812500,29.6650,-93.4789,0037,-7.82,-10.38,13.0000,217.0000
1981-10-03 08:00:00 UTC,2444880.833333,29.6650,-93.4789,0037,-9.33,-7.55,12.0000,231.0000
1981-10-03 08:30:00 UTC,2444880.854167,29.6650,-93.4789,0037,-11.91,-1.46,12.0000,263.0000
1981-10-03 09:00:00 UTC,2444880.875000,29.6650,-93.4789,0037,-14.34,4.39,15.0000,287.0000
1981-10-03 09:30:00 UTC,2444880.895833,29.6650,-93.4789,0037,-20.10,8.95,22.0000,294.0000
1981-10-03 10:00:00 UTC,2444880.916667,29.6650,-93.4789,0037,-28.54,12.11,31.0000,293.0000
1981-10-03 10:30:00 UTC,2444880.937500,29.6650,-93.4789,0037,-32.68,12.54,35.0000,291.0000
1981-10-03 11:00:00 UTC,2444880.958333,29.6650,-93.4789,0037,-32.89,11.97,35.0000,290.0000
1981-10-03 11:30:00 UTC,2444880.979167,29.6650,-93.4789,0037,-33.09,11.39,35.0000,289.0000
1981-10-03 12:00:00 UTC,2444881.000000,29.6650,-93.4789,0037,-33.29,10.82,35.0000,288.0000
1981-10-03 12:30:00 UTC,2444881.020833,29.6650,-93.4789,0037,-32.34,10.51,34.0000,288.0000
1981-10-03 13:00:00 UTC,2444881.041667,29.6650,-93.4789,0037,-31.72,9.10,33.0000,286.0000
1981-10-03 13:30:00 UTC,2444881.062500,29.6650,-93.4789,0037,-32.28,6.86,33.0000,282.0000
1981-10-03 14:00:00 UTC,2444881.083333,29.6650,-93.4789,0037,-31.51,5.56,32.0000,280.0000
1981-10-03 14:30:00 UTC,2444881.104167,29.6650,-93.4789,0037,-31.76,3.90,32.0000,277.0000
1981-10-03 15:00:00 UTC,2444881.125000,29.6650,-93.4789,0037,-31.82,3.34,32.0000,276.0000
1981-10-03 15:30:00 UTC,2444881.145833,29.6650,-93.4789,0037,-31.88,2.79,32.0000,275.0000
1981-10-03 16:00:00 UTC,2444881.166667,29.6650,-93.4789,0037,-32.92,2.30,33.0000,274.0000
1981-10-03 16:30:00 UTC,2444881.187500,29.6650,-93.4789,0037,-32.82,3.45,33.0000,276.0000
1981-10-03 17:00:00 UTC,2444881.208333,29.6650,-93.4789,0037,-32.68,4.59,33.0000,278.0000
1981-10-03 17:30:00 UTC,2444881.229167,29.6650,-93.4789,0037,-31.30,6.65,32.0000,282.0000
1981-10-03 18:00:00 UTC,2444881.250000,29.6650,-93.4789,0037,-30.76,8.82,32.0000,286.0000
1981-10-03 18:30:00 UTC,2444881.270833,29.6650,-93.4789,0037,-31.56,9.65,33.0000,287.0000
1981-10-03 19:00:00 UTC,2444881.291667,29.6650,-93.4789,0037,-32.34,10.51,34.0000,288.0000
1981-10-03 19:30:00 UTC,2444881.312500,29.6650,-93.4789,0037,-32.34,10.51,34.0000,288.0000
1981-10-03 20:00:00 UTC,2444881.333333,29.6650,-93.4789,0037,-32.34,10.51,34.0000,288.0000
1981-10-03 20:30:00 UTC,2444881.354167,29.6650,-93.4789,0037,-32.51,9.94,34.0000,287.0000
1981-10-03 21:00:00 UTC,2444881.375000,29.6650,-93.4789,0037,-33.64,9.65,35.0000,286.0000
1981-10-03 21:30:00 UTC,2444881.395833,29.6650,-93.4789,0037,-34.77,9.32,36.0000,285.0000
1981-10-03 22:00:00 UTC,2444881.416667,29.6650,-93.4789,0037,-34.61,9.92,36.0000,286.0000
1981-10-03 22:30:00 UTC,2444881.437500,29.6650,-93.4789,0037,-34.04,11.72,36.0000,289.0000
1981-10-03 23:00:00 UTC,2444881.458333,29.6650,-93.4789,0037,-32.45,13.11,35.0000,292.0000
1981-10-03 23:30:00 UTC,2444881.479167,29.6650,-93.4789,0037,-28.37,9.77,30.0000,289.0000
1981-10-04 00:00:00 UTC,2444881.500000,29.6650,-93.4789,0037,-23.82,2.92,24.0000,277.0000
1981-10-04 00:30:00 UTC,2444881.520833,29.6650,-93.4789,0037,-20.88,-2.20,21.0000,264.0000
1981-10-04 01:00:00 UTC,2444881.541667,29.6650,-93.4789,0037,-20.46,-4.72,21.0000,257.0000
1981-10-04 01:30:00 UTC,2444881.562500,29.6650,-93.4789,0037,-18.07,-5.87,19.0000,252.0000
1981-10-04 02:00:00 UTC,2444881.583333,29.6650,-93.4789,0037,-16.44,-7.32,18.0000,246.0000
1981-10-04 02:30:00 UTC,2444881.604167,29.6650,-93.4789,0037,-14.87,-8.24,17.0000,241.0000
1981-10-04 03:00:00 UTC,2444881.625000,29.6650,-93.4789,0037,-13.42,-8.71,16.0000,237.0000
1981-10-04 03:30:00 UTC,2444881.645833,29.6650,-93.4789,0037,-12.72,-7.95,15.0000,238.0000
1981-10-04 04:00:00 UTC,2444881.666667,29.6650,-93.4789,0037,-12.36,-6.57,14.0000,242.0000
1981-10-04 04:30:00 UTC,2444881.687500,29.6650,-93.4789,0037,-14.10,-5.13,15.0000,250.0000
1981-10-04 05:00:00 UTC,2444881.708333,29.6650,-93.4789,0037,-15.71,-3.05,16.0000,259.0000
1981-10-04 05:30:00 UTC,2444881.729167,29.6650,-93.4789,0037,-15.76,-2.78,16.0000,260.0000
1981-10-04 06:00:00 UTC,2444881.750000,29.6650,-93.4789,0037,-17.82,-2.51,18.0000,262.0000
1981-10-04 06:30:00 UTC,2444881.770833,29.6650,-93.4789,0037,-19.85,-2.44,20.0000,263.0000
1981-10-04 07:00:00 UTC,2444881.791667,29.6650,-93.4789,0037,-20.61,-4.01,21.0000,259.0000
1981-10-04 07:30:00 UTC,2444881.812500,29.6650,-93.4789,0037,-24.15,-6.47,25.0000,255.0000
1981-10-04 08:00:00 UTC,2444881.833333,29.6650,-93.4789,0037,-26.63,-8.65,28.0000,252.0000
1981-10-04 08:30:00 UTC,2444881.854167,29.6650,-93.4789,0037,-28.53,-9.27,30.0000,252.0000
1981-10-04 09:00:00 UTC,2444881.875000,29.6650,-93.4789,0037,-32.28,-6.86,33.0000,258.0000
1981-10-04 09:30:00 UTC,2444881.895833,29.6650,-93.4789,0037,-35.45,-6.25,36.0000,260.0000
1981-10-04 10:00:00 UTC,2444881.916667,29.6650,-93.4789,0037,-37.17,-7.90,38.0000,258.0000
1981-10-04 10:30:00 UTC,2444881.937500,29.6650,-93.4789,0037,-38.28,-7.44,39.0000,259.0000
1981-10-04 11:00:00 UTC,2444881.958333,29.6650,-93.4789,0037,-37.42,-6.60,38.0000,260.0000
1981-10-04 11:30:00 UTC,2444881.979167,29.6650,-93.4789,0037,-32.50,-5.73,33.0000,260.0000
1981-10-04 12:00:00 UTC,2444882.000000,29.6650,-93.4789,0037,-28.64,-4.54,29.0000,261.0000
1981-10-04 12:30:00 UTC,2444882.020833,29.6650,-93.4789,0037,-27.89,-2.44,28.0000,265.0000
1981-10-04 13:00:00 UTC,2444882.041667,29.6650,-93.4789,0037,-28.00,-0.49,28.0000,269.0000
1981-10-04 13:30:00 UTC,2444882.062500,29.6650,-93.4789,0037,-29.00,-0.51,29.0000,269.0000
1981-10-04 14:00:00 UTC,2444882.083333,29.6650,-93.4789,0037,-29.98,-1.05,30.0000,268.0000
1981-10-04 14:30:00 UTC,2444882.104167,29.6650,-93.4789,0037,-30.98,-1.08,31.0000,268.0000
1981-10-04 15:00:00 UTC,2444882.125000,29.6650,-93.4789,0037,-29.96,-1.57,30.0000,267.0000
1981-10-04 15:30:00 UTC,2444882.145833,29.6650,-93.4789,0037,-28.96,-1.52,29.0000,267.0000
1981-10-04 16:00:00 UTC,2444882.166667,29.6650,-93.4789,0037,-29.00,-0.00,29.0000,270.0000
1981-10-04 16:30:00 UTC,2444882.187500,29.6650,-93.4789,0037,-27.96,1.47,28.0000,273.0000
1981-10-04 17:00:00 UTC,2444882.208333,29.6650,-93.4789,0037,-26.85,2.82,27.0000,276.0000
1981-10-04 17:30:00 UTC,2444882.229167,29.6650,-93.4789,0037,-25.52,4.96,26.0000,281.0000
1981-10-04 18:00:00 UTC,2444882.250000,29.6650,-93.4789,0037,-25.23,6.29,26.0000,284.0000
1981-10-04 18:30:00 UTC,2444882.270833,29.6650,-93.4789,0037,-25.33,5.85,26.0000,283.0000
1981-10-04 19:00:00 UTC,2444882.291667,29.6650,-93.4789,0037,-25.33,5.85,26.0000,283.0000
1981-10-04 19:30:00 UTC,2444882.312500,29.6650,-93.4789,0037,-25.23,6.29,26.0000,284.0000
1981-10-04 20:00:00 UTC,2444882.333333,29.6650,-93.4789,0037,-25.33,5.85,26.0000,283.0000
1981-10-04 20:30:00 UTC,2444882.354167,29.6650,-93.4789,0037,-26.41,5.61,27.0000,282.0000
1981-10-04 21:00:00 UTC,2444882.375000,29.6650,-93.4789,0037,-26.41,5.61,27.0000,282.0000
1981-10-04 21:30:00 UTC,2444882.395833,29.6650,-93.4789,0037,-26.08,6.99,27.0000,285.0000
1981-10-04 22:00:00 UTC,2444882.416667,29.6650,-93.4789,0037,-24.58,8.46,26.0000,289.0000
1981-10-04 22:30:00 UTC,2444882.437500,29.6650,-93.4789,0037,-22.25,8.99,24.0000,292.0000
1981-10-04 23:00:00 UTC,2444882.458333,29.6650,-93.4789,0037,-19.94,9.30,22.0000,295.0000
1981-10-04 23:30:00 UTC,2444882.479167,29.6650,-93.4789,0037,-16.62,9.21,19.0000,299.0000
1981-10-05 00:00:00 UTC,2444882.500000,29.6650,-93.4789,0037,-13.71,8.24,16.0000,301.0000
1981-10-05 00:30:00 UTC,2444882.520833,29.6650,-93.4789,0037,-10.69,5.45,12.0000,297.0000
1981-10-05 01:00:00 UTC,2444882.541667,29.6650,-93.4789,0037,-9.27,3.75,10.0000,292.0000
1981-10-05 01:30:00 UTC,2444882.562500,29.6650,-93.4789,0037,-8.69,2.33,9.0000,285.0000
1981-10-05 02:00:00 UTC,2444882.583333,29.6650,-93.4789,0037,-7.99,0.42,8.0000,273.0000
1981-10-05 02:30:00 UTC,2444882.604167,29.6650,-93.4789,0037,-6.79,-1.69,7.0000,256.0000
1981-10-05 03:00:00 UTC,2444882.625000,29.6650,-93.4789,0037,-6.12,-3.39,7.0000,241.0000
1981-10-05 03:30:00 UTC,2444882.645833,29.6650,-93.4789,0037,-5.36,-4.50,7.0000,230.0000
1981-10-05 04:00:00 UTC,2444882.666667,29.6650,-93.4789,0037,-5.75,-5.56,8.0000,226.0000
1981-10-05 04:30:00 UTC,2444882.687500,29.6650,-93.4789,0037,-5.95,-5.35,8.0000,228.0000
1981-10-05 05:00:00 UTC,2444882.708333,29.6650,-93.4789,0037,-6.02,-6.69,9.0000,222.0000
1981-10-05 05:30:00 UTC,2444882.729167,29.6650,-93.4789,0037,-4.54,-8.91,10.0000,207.0000
1981-10-05 06:00:00 UTC,2444882.750000,29.6650,-93.4789,0037,-3.58,-10.40,11.0000,199.0000
1981-10-05 06:30:00 UTC,2444882.770833,29.6650,-93.4789,0037,-3.40,-10.46,11.0000,198.0000
1981-10-05 07:00:00 UTC,2444882.791667,29.6650,-93.4789,0037,-4.12,-10.20,11.0000,202.0000
1981-10-05 07:30:00 UTC,2444882.812500,29.6650,-93.4789,0037,-5.29,-11.88,13.0000,204.0000
1981-10-05 08:00:00 UTC,2444882.833333,29.6650,-93.4789,0037,-6.36,-12.47,14.0000,207.0000
1981-10-05 08:30:00 UTC,2444882.854167,29.6650,-93.4789,0037,-6.79,-12.24,14.0000,209.0000
1981-10-05 09:00:00 UTC,2444882.875000,29.6650,-93.4789,0037,-6.30,-11.37,13.0000,209.0000
1981-10-05 09:30:00 UTC,2444882.895833,29.6650,-93.4789,0037,-5.07,-10.88,12.0000,205.0000
1981-10-05 10:00:00 UTC,2444882.916667,29.6650,-93.4789,0037,-4.88,-10.96,12.0000,204.0000
1981-10-05 10:30:00 UTC,2444882.937500,29.6650,-93.4789,0037,-6.00,-10.39,12.0000,210.0000
1981-10-05 11:00:00 UTC,2444882.958333,29.6650,-93.4789,0037,-7.22,-8.30,11.0000,221.0000
1981-10-05 11:30:00 UTC,2444882.979167,29.6650,-93.4789,0037,-8.55,-6.92,11.0000,231.0000